Weather History for Elefsis, Greece

Change the Weather History Date:

Saturday, December 17, 2011

  Actual Average Record
Temperature  
Mean Temperature 58 °F -  
Max Temperature 69 °F 54 °F 69 °F (2011)
Min Temperature 48 °F 41 °F 33 °F (2003)
Degree Days  
Heating Degree Days 6    
Growing Degree Days 8 (Base 50)    
Moisture  
Dew Point 44 °F    
Average Humidity 56    
Maximum Humidity 71    
Minimum Humidity 35    
Precipitation  
Precipitation 0.00 in - - ()
Sea Level Pressure  
Sea Level Pressure 29.71 in    
Wind  
Wind Speed 4 mph ()    
Max Wind Speed 20 mph    
Max Gust Speed 31 mph    
Visibility 6.2 miles    
Events      
Averages and records for this station are not official NWS values.
T = Trace of Precipitation, MM = Missing Value Source: Averaged Metar Reports

Daily Weather History Graph

Daily Weather History Graph

Search for Another Location

Airport:

Trip Planner

Search our weather history database for the weather conditions in past years. The results will help you decide how hot, cold, wet, or windy it might be!

Date:

Astronomy

Dec. 17, 2011 Rise Set
Actual Time 7:35 AM EET 5:07 PM EET
Civil Twilight 7:06 AM EET 5:37 PM EET
Nautical Twilight 6:33 AM EET 6:10 PM EET
Astronomical Twilight 6:01 AM EET 6:42 PM EET
Moon No Moon Rise 11:47 AM EET (12/17)
Length of Visible Light 10h 31m
Length of Day
9h 31m
Waning Gibbous, 57% of the Moon is Illuminated
Dec 17
Waning Gibbous
Dec 18
Last Quarter
Dec 24
New
Jan 1
First Quarter
Jan 9
Full

Hourly Weather History & Observations

Time (EET) Temp. Dew Point Humidity Pressure Visibility Wind Dir Wind Speed Gust Speed Precip Events Conditions
12:20 AM 48.2 °F 35.6 °F 62% 29.89 in - Calm Calm - N/A   Clear
12:50 AM 48.2 °F 37.4 °F 66% 29.89 in - Calm Calm - N/A   Clear
1:20 AM 48.2 °F 37.4 °F 66% 29.89 in - Calm Calm - N/A   Clear
1:50 AM 48.2 °F 35.6 °F 62% 29.86 in - Calm Calm - N/A   Clear
2:20 AM 48.2 °F 37.4 °F 66% 29.86 in - Calm Calm - N/A   Clear
2:50 AM 48.2 °F 39.2 °F 71% 29.83 in 6.2 mi Calm Calm - N/A   Scattered Clouds
3:20 AM 50.0 °F 41.0 °F 71% 29.83 in 6.2 mi Calm Calm - N/A   Scattered Clouds
3:50 AM 50.0 °F 41.0 °F 71% 29.80 in 6.2 mi Calm Calm - N/A   Scattered Clouds
4:20 AM 51.8 °F 41.0 °F 67% 29.80 in 6.2 mi Calm Calm - N/A   Scattered Clouds
4:50 AM 51.8 °F 41.0 °F 67% 29.77 in 6.2 mi Calm Calm - N/A   Scattered Clouds
5:20 AM 53.6 °F 41.0 °F 62% 29.77 in 6.2 mi Calm Calm - N/A   Scattered Clouds
5:50 AM 53.6 °F 41.0 °F 62% 29.77 in 6.2 mi Calm Calm - N/A   Scattered Clouds
6:20 AM 51.8 °F 41.0 °F 67% 29.77 in 6.2 mi Calm Calm - N/A   Scattered Clouds
6:50 AM 53.6 °F 42.8 °F 67% 29.74 in 6.2 mi Calm Calm - N/A   Scattered Clouds
7:20 AM 53.6 °F 42.8 °F 67% 29.74 in 6.2 mi Calm Calm - N/A   Scattered Clouds
7:50 AM 55.4 °F 44.6 °F 67% 29.74 in 6.2 mi Calm Calm - N/A   Scattered Clouds
8:20 AM 59.0 °F 44.6 °F 59% 29.74 in 6.2 mi Calm Calm - N/A   Scattered Clouds
8:50 AM 60.8 °F 42.8 °F 52% 29.74 in 6.2 mi SSW 9.2 mph - N/A   Scattered Clouds
9:20 AM 60.8 °F 44.6 °F 55% 29.74 in 6.2 mi SW 6.9 mph - N/A   Scattered Clouds
9:50 AM 60.8 °F 44.6 °F 55% 29.71 in 6.2 mi SSW 9.2 mph - N/A   Overcast
10:20 AM 62.6 °F 44.6 °F 52% 29.71 in 6.2 mi SW 11.5 mph - N/A   Overcast
10:50 AM 62.6 °F 46.4 °F 55% 29.71 in 6.2 mi SW 11.5 mph - N/A   Mostly Cloudy
11:20 AM 66.2 °F 46.4 °F 49% 29.71 in 6.2 mi SSW 13.8 mph - N/A   Mostly Cloudy
11:50 AM 66.2 °F 44.6 °F 46% 29.68 in 6.2 mi SSW 19.6 mph - N/A   Scattered Clouds
12:20 PM 68.0 °F 44.6 °F 43% 29.68 in 6.2 mi SW 16.1 mph 27.6 mph N/A   Scattered Clouds
12:50 PM 69.8 °F 41.0 °F 35% 29.65 in 6.2 mi SSW 13.8 mph 25.3 mph N/A   Scattered Clouds
1:20 PM 69.8 °F 41.0 °F 35% 29.65 in 6.2 mi SSW 13.8 mph 25.3 mph N/A   Scattered Clouds
1:50 PM 69.8 °F 44.6 °F 40% 29.62 in 6.2 mi South 9.2 mph 20.7 mph N/A   Scattered Clouds
2:20 PM 69.8 °F 44.6 °F 40% 29.62 in 6.2 mi SSE 11.5 mph 23.0 mph N/A   Scattered Clouds
2:50 PM 66.2 °F 46.4 °F 49% 29.62 in 6.2 mi SW 17.3 mph 28.8 mph N/A   Scattered Clouds
3:20 PM 66.2 °F 46.4 °F 49% 29.62 in 6.2 mi SW 17.3 mph 28.8 mph N/A   Scattered Clouds
3:50 PM 68.0 °F 44.6 °F 43% 29.62 in 6.2 mi SSW 12.7 mph 24.2 mph N/A   Scattered Clouds
4:20 PM 68.0 °F 44.6 °F 43% 29.62 in 6.2 mi SSW 19.6 mph 31.1 mph N/A   Scattered Clouds
4:50 PM 66.2 °F 46.4 °F 49% 29.62 in 6.2 mi SSW 11.5 mph 23.0 mph N/A   Scattered Clouds
5:20 PM 64.4 °F 48.2 °F 56% 29.62 in 6.2 mi South 9.2 mph 20.7 mph N/A   Scattered Clouds
5:50 PM 66.2 °F 44.6 °F 46% 29.62 in 6.2 mi SSW 13.8 mph - N/A   Scattered Clouds
6:20 PM 64.4 °F 48.2 °F 56% 29.62 in 6.2 mi SSE 9.2 mph - N/A   Scattered Clouds
6:50 PM 64.4 °F 50.0 °F 59% 29.62 in 6.2 mi SSE 6.9 mph - N/A   Scattered Clouds
7:20 PM 66.2 °F 44.6 °F 46% 29.62 in 6.2 mi SSW 6.9 mph - N/A   Scattered Clouds
7:50 PM 64.4 °F 50.0 °F 59% 29.62 in 6.2 mi South 6.9 mph - N/A   Mostly Cloudy
8:20 PM 66.2 °F 44.6 °F 46% 29.62 in 6.2 mi SSW 8.1 mph - N/A   Mostly Cloudy
8:50 PM 64.4 °F 48.2 °F 56% 29.62 in 6.2 mi SW 5.8 mph - N/A   Mostly Cloudy
9:20 PM 64.4 °F 48.2 °F 56% 29.62 in 6.2 mi West 6.9 mph - N/A   Mostly Cloudy
9:50 PM 62.6 °F 51.8 °F 68% 29.65 in 6.2 mi NW 5.8 mph - N/A   Mostly Cloudy
10:20 PM 62.6 °F 51.8 °F 68% 29.65 in 6.2 mi WNW 6.9 mph - N/A   Mostly Cloudy
10:50 PM 60.8 °F 46.4 °F 59% 29.68 in 6.2 mi WNW 9.2 mph - N/A   Mostly Cloudy
11:20 PM 60.8 °F 46.4 °F 59% 29.68 in 6.2 mi West 6.9 mph - N/A   Mostly Cloudy
11:50 PM 60.8 °F 44.6 °F 55% 29.68 in 6.2 mi WNW 5.8 mph - N/A   Mostly Cloudy